TimeEST,TemperatureF,Dew PointF,Humidity,Sea Level PressureIn,VisibilityMPH,Wind Direction,Wind SpeedMPH,Gust SpeedMPH,PrecipitationIn,Events,Conditions,WindDirDegrees,DateUTC
12:53 AM,54.0,46.0,75,30.19,10.0,SSW,5.8,-,N/A,,Clear,200,2011-11-27 05:53:00
1:53 AM,55.4,44.6,67,30.20,10.0,SSW,5.8,-,N/A,,Clear,200,2011-11-27 06:53:00
2:53 AM,55.0,46.0,72,30.18,10.0,South,5.8,-,N/A,,Clear,190,2011-11-27 07:53:00
3:53 AM,53.1,46.9,80,30.17,10.0,South,3.5,-,N/A,,Clear,180,2011-11-27 08:53:00
4:53 AM,54.0,48.0,80,30.15,10.0,South,6.9,-,N/A,,Clear,190,2011-11-27 09:53:00
5:53 AM,55.0,48.0,77,30.16,10.0,SSW,6.9,-,N/A,,Mostly Cloudy,200,2011-11-27 10:53:00
6:53 AM,55.0,48.0,77,30.16,10.0,SSW,5.8,-,N/A,,Overcast,200,2011-11-27 11:53:00
7:53 AM,55.9,48.0,75,30.17,10.0,South,5.8,-,N/A,,Mostly Cloudy,190,2011-11-27 12:53:00
8:53 AM,60.1,48.9,67,30.17,10.0,South,4.6,-,N/A,,Overcast,190,2011-11-27 13:53:00
9:53 AM,62.6,48.2,59,30.19,10.0,SSW,10.4,18.4,N/A,,Mostly Cloudy,210,2011-11-27 14:53:00
10:53 AM,66.0,51.1,59,30.16,10.0,SSW,8.1,17.3,N/A,,Overcast,200,2011-11-27 15:53:00
11:53 AM,66.9,48.9,52,30.14,10.0,SSW,12.7,25.3,N/A,,Overcast,210,2011-11-27 16:53:00
12:53 PM,68.0,48.9,50,30.12,10.0,SSW,17.3,25.3,N/A,,Overcast,210,2011-11-27 17:53:00
1:53 PM,68.0,50.0,52,30.10,10.0,SSW,13.8,20.7,N/A,,Overcast,210,2011-11-27 18:53:00
2:53 PM,69.1,48.9,49,30.09,10.0,SSW,8.1,20.7,N/A,,Overcast,200,2011-11-27 19:53:00
3:53 PM,68.0,48.9,50,30.07,10.0,SSW,12.7,20.7,N/A,,Mostly Cloudy,200,2011-11-27 20:53:00
4:53 PM,66.0,50.0,56,30.08,10.0,South,4.6,-,N/A,,Overcast,190,2011-11-27 21:53:00
5:53 PM,64.0,50.0,60,30.07,10.0,South,4.6,-,N/A,,Mostly Cloudy,180,2011-11-27 22:53:00
6:53 PM,62.1,51.1,67,30.08,10.0,Calm,Calm,-,N/A,,Overcast,0,2011-11-27 23:53:00
7:53 PM,61.0,51.1,70,30.07,10.0,Calm,Calm,-,N/A,,Mostly Cloudy,0,2011-11-28 00:53:00
8:53 PM,63.0,51.1,65,30.06,10.0,Variable,3.5,-,N/A,,Mostly Cloudy,0,2011-11-28 01:53:00
9:53 PM,62.1,51.1,67,30.06,10.0,Variable,3.5,-,N/A,,Overcast,0,2011-11-28 02:53:00
10:53 PM,61.0,52.0,72,30.06,10.0,South,4.6,-,N/A,,Mostly Cloudy,180,2011-11-28 03:53:00
11:53 PM,60.1,52.0,75,30.05,10.0,South,3.5,-,N/A,,Mostly Cloudy,170,2011-11-28 04:53:00